Clinton, OK

11:28 PM CDT on April 25, 2017 (GMT -0500)
Clinton Municipal

Weather History for KCLK - September, 2013

Change the Weather History Date:

Sunday, September 29, 2013

  Actual Average (KCSM) Record (KCSM)
Temperature  
Mean Temperature 60 °F -  
Max Temperature 75 °F 78 °F 98 °F (1998)
Min Temperature 46 °F 54 °F 44 °F (1999)
Degree Days  
Heating Degree Days 4    
Growing Degree Days 10 (Base 50)    
Moisture  
Dew Point 43 °F    
Average Humidity 60    
Maximum Humidity 93    
Minimum Humidity 22    
Precipitation  
Precipitation 0.00 in - - ()
Sea Level Pressure  
Sea Level Pressure 30.07 in    
Wind  
Wind Speed 1 mph (SSE)    
Max Wind Speed 8 mph    
Max Gust Speed -    
Visibility 10 miles    
Events      
Averages and records for this station are not official NWS values.
T = Trace of Precipitation, MM = Missing Value Source: NWS Daily Summary

Daily Weather History Graph

Daily Weather History Graph

Search for Another Location

Airport or City:

Trip Planner

Search our weather history database for the weather conditions in past years. The results will help you decide how hot, cold, wet, or windy it might be!

Date:

Astronomy

Sep. 29, 2013 Rise Set
Actual Time 7:29 AM CDT 7:21 PM CDT
Civil Twilight 7:03 AM CDT 7:47 PM CDT
Nautical Twilight 6:34 AM CDT 8:16 PM CDT
Astronomical Twilight 6:04 AM CDT 8:46 PM CDT
Moon 2:21 AM CDT (9/29) 4:10 PM CDT (9/29)
Length of Visible Light 12h 43m
Length of Day
11h 52m
Waning Crescent, 27% of the Moon is Illuminated
Sep 29
Waning Crescent
Oct 4
New
Oct 11
First Quarter
Oct 18
Full
Oct 26
Last Quarter

Hourly Weather History & Observations

Time (CDT) Temp. Dew Point Humidity Pressure Visibility Wind Dir Wind Speed Gust Speed Precip Events Conditions
12:15 AM 53.6 °F 48.2 °F 82% 30.16 in 10.0 mi Calm Calm - N/A   Scattered Clouds
12:35 AM 53.6 °F 48.2 °F 82% 30.16 in 10.0 mi Calm Calm - N/A   Scattered Clouds
12:55 AM 51.8 °F 48.2 °F 88% 30.16 in 10.0 mi Calm Calm - N/A   Scattered Clouds
1:15 AM 51.8 °F 48.2 °F 88% 30.16 in 10.0 mi Calm Calm - N/A   Clear
1:35 AM 51.8 °F 46.4 °F 82% 30.16 in 10.0 mi Calm Calm - N/A   Clear
1:55 AM 51.8 °F 46.4 °F 82% 30.16 in 10.0 mi Calm Calm - N/A   Clear
2:15 AM 50.0 °F 46.4 °F 87% 30.16 in 10.0 mi NNW 4.6 mph - N/A   Clear
2:35 AM 50.0 °F 46.4 °F 87% 30.16 in 10.0 mi Calm Calm - N/A   Clear
2:55 AM 51.8 °F 48.2 °F 88% 30.15 in 10.0 mi Calm Calm - N/A   Scattered Clouds
3:15 AM 50.0 °F 46.4 °F 87% 30.14 in 10.0 mi Calm Calm - N/A   Scattered Clouds
3:35 AM 50.0 °F 46.4 °F 87% 30.14 in 10.0 mi Calm Calm - N/A   Scattered Clouds
3:55 AM 50.0 °F 46.4 °F 87% 30.14 in 10.0 mi Calm Calm - N/A   Mostly Cloudy
4:15 AM 50.0 °F 46.4 °F 87% 30.13 in 10.0 mi West 3.5 mph - N/A   Scattered Clouds
4:35 AM 50.0 °F 44.6 °F 82% 30.13 in 10.0 mi West 4.6 mph - N/A   Scattered Clouds
4:55 AM 48.2 °F 44.6 °F 87% 30.13 in 10.0 mi NNW 5.8 mph - N/A   Scattered Clouds
5:15 AM 48.2 °F 44.6 °F 87% 30.12 in 10.0 mi Calm Calm - N/A   Scattered Clouds
5:35 AM 46.4 °F 44.6 °F 93% 30.13 in 10.0 mi Calm Calm - N/A   Scattered Clouds
5:55 AM 48.2 °F 44.6 °F 87% 30.13 in 10.0 mi Calm Calm - N/A   Scattered Clouds
6:15 AM 48.2 °F 44.6 °F 87% 30.13 in 10.0 mi Calm Calm - N/A   Scattered Clouds
6:35 AM 46.4 °F 44.6 °F 93% 30.14 in 10.0 mi Calm Calm - N/A   Scattered Clouds
6:55 AM 46.4 °F 44.6 °F 93% 30.14 in 10.0 mi Calm Calm - N/A   Scattered Clouds
7:15 AM 46.4 °F 44.6 °F 93% 30.14 in 10.0 mi Calm Calm - N/A   Scattered Clouds
7:35 AM 46.4 °F 42.8 °F 87% 30.15 in 10.0 mi Calm Calm - N/A   Clear
7:55 AM 46.4 °F 42.8 °F 87% 30.15 in 10.0 mi Calm Calm - N/A   Clear
8:15 AM 46.4 °F 44.6 °F 93% 30.15 in 10.0 mi Calm Calm - N/A   Clear
8:35 AM 48.2 °F 44.6 °F 87% 30.15 in 10.0 mi Calm Calm - N/A   Clear
8:55 AM 50.0 °F 44.6 °F 82% 30.15 in 10.0 mi Calm Calm - N/A   Clear
9:15 AM 50.0 °F 44.6 °F 82% 30.14 in 10.0 mi Calm Calm - N/A   Clear
9:35 AM 51.8 °F 48.2 °F 88% 30.14 in 10.0 mi Calm Calm - N/A   Clear
9:55 AM 53.6 °F 50.0 °F 88% 30.14 in 10.0 mi Calm Calm - N/A   Clear
10:15 AM 55.4 °F 50.0 °F 82% 30.14 in 10.0 mi WNW 3.5 mph - N/A   Clear
10:35 AM 59.0 °F 51.8 °F 77% 30.15 in 10.0 mi West 4.6 mph - N/A   Clear
10:55 AM 60.8 °F 50.0 °F 68% 30.14 in 10.0 mi West 3.5 mph - N/A   Clear
11:15 AM 62.6 °F 48.2 °F 59% 30.14 in 10.0 mi WNW 3.5 mph - N/A   Clear
11:35 AM 64.4 °F 46.4 °F 52% 30.14 in 10.0 mi Calm Calm - N/A   Clear
11:55 AM 66.2 °F 44.6 °F 46% 30.13 in 10.0 mi West 4.6 mph - N/A   Clear
12:15 PM 68.0 °F 42.8 °F 40% 30.12 in 10.0 mi Calm Calm - N/A   Clear
12:35 PM 68.0 °F 42.8 °F 40% 30.12 in 10.0 mi Calm Calm - N/A   Clear
12:55 PM 69.8 °F 35.6 °F 28% 30.11 in 10.0 mi Calm Calm - N/A   Clear
1:15 PM 69.8 °F 37.4 °F 31% 30.10 in 10.0 mi Calm Calm - N/A   Clear
1:35 PM 69.8 °F 35.6 °F 28% 30.09 in 10.0 mi Calm Calm - N/A   Clear
1:55 PM 69.8 °F 35.6 °F 28% 30.08 in 10.0 mi Calm Calm - N/A   Clear
2:15 PM 71.6 °F 35.6 °F 27% 30.06 in 10.0 mi Calm Calm - N/A   Clear
2:35 PM 71.6 °F 33.8 °F 25% 30.05 in 10.0 mi South 3.5 mph - N/A   Clear
2:55 PM 73.4 °F 33.8 °F 23% 30.03 in 10.0 mi Calm Calm - N/A   Clear
3:15 PM 71.6 °F 33.8 °F 25% 30.03 in 7.0 mi South 3.5 mph - N/A   Clear
3:35 PM 73.4 °F 33.8 °F 23% 30.01 in 10.0 mi WSW 4.6 mph - N/A   Clear
3:55 PM 73.4 °F 33.8 °F 23% 30.01 in 10.0 mi South 3.5 mph - N/A   Clear
4:15 PM 73.4 °F 33.8 °F 23% 30.00 in 10.0 mi Calm Calm - N/A   Clear
4:35 PM 73.4 °F 32.0 °F 22% 30.00 in 10.0 mi Calm Calm - N/A   Clear
4:55 PM 73.4 °F 33.8 °F 23% 29.99 in 10.0 mi SE 3.5 mph - N/A   Clear
5:15 PM 75.2 °F 35.6 °F 24% 29.98 in 10.0 mi SE 4.6 mph - N/A   Clear
5:35 PM 75.2 °F 35.6 °F 24% 29.97 in 10.0 mi ESE 3.5 mph - N/A   Clear
5:55 PM 73.4 °F 35.6 °F 25% 29.97 in 10.0 mi SSE 6.9 mph - N/A   Clear
6:15 PM 73.4 °F 33.8 °F 23% 29.96 in 10.0 mi SE 3.5 mph - N/A   Clear
6:35 PM 73.4 °F 35.6 °F 25% 29.96 in 10.0 mi SSE 5.8 mph - N/A   Clear
6:55 PM 71.6 °F 37.4 °F 29% 29.96 in 10.0 mi SSE 3.5 mph - N/A   Clear
7:15 PM 69.8 °F 42.8 °F 38% 29.96 in 10.0 mi SE 3.5 mph - N/A   Clear
7:35 PM 68.0 °F 44.6 °F 43% 29.96 in 10.0 mi SE 3.5 mph - N/A   Clear
7:55 PM 66.2 °F 46.4 °F 49% 29.95 in 10.0 mi SE 5.8 mph - N/A   Clear
8:15 PM 64.4 °F 44.6 °F 49% 29.95 in 10.0 mi SE 4.6 mph - N/A   Clear
8:35 PM 64.4 °F 42.8 °F 45% 29.96 in 10.0 mi SE 4.6 mph - N/A   Clear
8:55 PM 64.4 °F 42.8 °F 45% 29.96 in 10.0 mi SE 5.8 mph - N/A   Clear
9:15 PM 62.6 °F 42.8 °F 48% 29.96 in 10.0 mi SE 5.8 mph - N/A   Scattered Clouds
9:35 PM 62.6 °F 41.0 °F 45% 29.96 in 10.0 mi SSE 5.8 mph - N/A   Scattered Clouds
9:55 PM 60.8 °F 42.8 °F 52% 29.97 in 10.0 mi SE 3.5 mph - N/A   Clear
10:15 PM 60.8 °F 42.8 °F 52% 29.98 in 10.0 mi SSE 4.6 mph - N/A   Clear
10:35 PM 60.8 °F 42.8 °F 52% 29.98 in 10.0 mi SSE 3.5 mph - N/A   Clear
10:55 PM 59.0 °F 44.6 °F 59% 29.97 in 10.0 mi SE 6.9 mph - N/A   Clear
11:15 PM 59.0 °F 42.8 °F 55% 29.97 in 10.0 mi SE 6.9 mph - N/A   Clear
11:35 PM 60.8 °F 42.8 °F 52% 29.96 in 10.0 mi SE 8.1 mph - N/A   Clear
11:55 PM 59.0 °F 42.8 °F 55% 29.96 in 10.0 mi SE 5.8 mph - N/A   Clear